Theta_e
310 308 307 307 308 310 312 313 313 315 318 317 317 318 318 318 318 318 317 317 317 318 318 319 319 320 320 320 321 321 322 322 323 324 325 326 328 328 328 328 328 328 328 328 328 328 331 332 331 329 330 329 330 329 329 328 327 327 328 328 328 328 329
311 309 307 307 306 307 308 310 312 315 318 318 318 318 317 317 317 315 314 314 314 314 315 316 317 318 318 319 319 319 320 320 320 321 322 323 325 325 326 327 328 328 327 327 328 328 328 330 331 331 330 328 329 329 329 330 329 329 328 328 329 328 328
312 310 309 308 307 306 307 309 310 314 316 318 318 318 317 316 313 308 307 308 309 310 310 312 313 314 315 316 316 316 317 317 318 318 319 320 321 321 322 323 324 326 327 327 328 329 329 329 330 330 328 328 329 329 329 329 329 330 330 329 329 329 329
312 311 309 309 308 306 307 308 309 312 315 316 317 317 316 313 308 305 305 305 306 306 307 307 307 308 310 311 311 312 313 314 314 315 316 317 318 318 319 319 321 322 324 325 327 328 328 328 328 329 329 328 329 329 329 329 329 329 329 329 329 329 329
313 311 308 308 308 307 306 306 308 311 313 315 315 315 313 311 308 306 306 306 306 306 306 306 306 307 307 307 307 308 310 311 312 313 313 314 315 316 317 317 318 319 320 322 324 325 326 327 328 328 329 329 328 328 328 329 329 329 329 328 329 328 328
314 313 310 308 308 307 306 306 307 308 311 312 313 312 312 311 311 310 309 308 308 308 307 306 307 307 306 306 305 306 307 309 310 311 312 313 313 313 314 315 316 317 317 318 320 322 324 326 327 327 328 328 327 328 328 328 329 328 328 328 327 327 326
315 314 312 310 310 309 308 307 307 307 308 309 310 310 311 312 312 312 311 310 310 310 308 306 306 306 305 306 306 306 307 308 308 309 309 310 311 311 312 312 313 314 315 316 317 319 321 324 326 327 327 327 327 327 327 327 327 327 328 327 327 327 327
316 315 314 312 311 311 310 309 308 307 308 308 309 310 311 312 312 313 312 311 311 310 308 306 306 305 305 306 307 307 307 307 307 308 308 308 308 309 310 310 311 311 312 313 314 315 317 319 322 324 326 327 327 327 327 327 327 327 327 327 328 328 327
314 314 314 313 311 311 312 311 309 308 308 308 310 312 312 313 313 313 312 311 311 311 308 306 305 306 306 306 305 305 306 306 307 307 307 307 307 307 308 308 309 309 310 311 312 312 313 314 316 319 322 325 326 327 327 326 326 326 326 327 327 326 326
314 314 313 312 312 312 312 312 310 309 308 309 311 312 312 313 313 312 312 312 312 311 308 306 306 307 306 305 304 304 304 305 305 305 305 305 305 305 306 306 307 307 307 308 309 310 311 312 312 314 316 319 322 325 327 326 325 323 323 324 325 324 324
315 314 313 312 312 312 312 312 311 310 309 309 311 312 312 312 312 312 312 312 312 310 308 307 307 307 306 305 304 304 304 304 304 304 305 304 304 304 304 304 304 304 305 305 306 307 308 309 309 310 311 313 316 321 325 327 325 324 323 323 323 323 324
316 315 314 313 313 313 313 312 311 311 310 310 311 312 311 312 312 312 312 312 311 309 307 307 307 307 306 305 304 304 304 305 304 305 305 304 304 304 304 304 304 303 303 303 304 305 305 306 307 308 308 309 311 315 319 323 324 324 324 324 323 323 324
316 315 314 314 314 314 313 312 311 311 311 311 311 311 311 311 311 311 312 311 310 308 307 308 307 307 306 305 304 304 304 304 304 304 304 304 304 304 304 304 303 303 303 303 303 304 304 305 305 306 306 307 308 310 313 318 321 322 322 324 325 324 324
316 315 315 315 315 314 312 312 312 312 312 311 312 311 311 311 311 311 311 309 308 308 308 308 307 306 305 304 304 304 304 304 304 303 303 303 303 303 303 303 303 303 303 303 304 304 304 304 304 305 305 305 306 308 310 314 317 319 320 321 323 324 325
317 316 316 315 314 313 312 312 313 313 312 312 312 312 311 311 311 310 309 308 308 308 308 307 306 306 305 304 303 303 303 303 302 302 302 302 302 302 302 302 303 303 303 303 303 303 303 304 304 304 304 305 305 306 308 311 314 316 317 319 320 322 323
317 316 316 314 314 313 313 313 313 312 312 312 312 311 311 311 310 308 307 307 308 307 307 307 306 305 303 303 303 302 302 302 302 302 302 302 302 302 302 302 302 302 302 302 302 303 303 303 304 304 304 304 305 305 306 308 310 313 315 316 318 320 322
316 316 315 315 314 314 313 313 312 312 312 311 311 311 311 310 308 307 307 307 307 307 307 305 304 303 303 302 302 302 302 301 301 301 301 301 302 302 302 301 302 302 302 302 302 302 303 303 303 303 304 304 304 304 304 305 308 311 313 315 316 318 320
315 315 315 315 315 314 313 312 312 311 311 310 310 310 310 308 307 307 308 308 307 306 305 304 303 303 302 302 301 301 300 300 300 300 300 301 301 302 302 301 302 302 301 302 302 302 302 302 302 303 303 303 303 303 304 304 306 308 310 312 313 314 316
315 315 315 315 315 314 313 312 312 311 310 310 310 310 309 308 308 308 308 307 306 305 304 303 303 302 302 301 301 300 300 299 299 298 299 299 300 301 301 301 302 302 302 302 302 302 302 302 302 302 302 303 303 303 304 304 305 305 307 308 309 311 313
316 315 315 315 315 314 312 312 312 311 310 310 310 309 309 308 308 308 307 306 304 303 303 302 302 301 301 301 300 299 299 298 298 297 298 298 298 298 299 299 300 301 301 301 302 302 302 302 302 303 303 303 303 303 304 304 304 304 305 306 307 309 310
317 316 316 315 314 313 312 312 311 310 310 310 309 309 309 309 308 306 305 304 303 302 302 301 301 301 300 300 299 299 298 298 297 297 297 298 297 297 297 298 298 298 299 299 300 300 301 301 301 302 302 302 302 302 303 303 303 303 304 305 306 307 308
317 316 315 314 313 312 312 311 311 310 310 310 309 309 309 308 306 305 303 302 302 301 301 301 300 299 299 298 298 298 298 298 298 297 298 298 297 297 297 297 297 297 297 297 298 298 299 299 299 299 300 300 300 301 301 301 302 302 303 304 305 306 307
315 315 314 314 313 312 311 311 310 310 310 310 309 309 307 306 305 303 302 302 301 300 300 299 298 298 297 297 297 297 297 297 297 297 297 297 297 297 297 297 297 297 297 297 297 297 297 297 298 298 298 299 299 299 300 300 301 301 302 303 303 304 305
314 315 314 314 313 313 311 311 310 310 310 309 309 308 306 305 304 302 302 301 300 299 298 296 296 295 295 295 295 296 296 296 296 296 297 297 297 297 297 297 297 297 297 297 296 296 296 296 297 297 297 297 297 298 298 299 300 301 301 302 303 304 305
314 315 314 314 314 313 312 311 310 310 310 309 308 307 305 304 303 302 301 300 299 297 295 294 293 293 293 293 293 294 294 294 294 295 295 296 296 296 296 296 296 296 296 296 296 296 296 296 296 296 296 296 296 296 297 297 299 300 300 301 302 303 303
313 314 314 314 314 312 311 311 310 310 309 308 307 306 305 303 302 302 300 298 297 295 293 292 291 291 292 292 292 293 293 293 293 293 293 294 294 295 295 295 296 296 296 296 296 296 295 295 296 295 295 295 295 295 296 296 297 298 299 300 301 301 302
314 313 314 314 313 312 311 311 310 309 309 307 306 305 304 303 302 300 299 297 295 293 292 291 291 290 291 291 292 292 292 292 292 292 292 292 293 293 294 294 295 295 295 295 295 295 295 295 295 295 295 295 295 295 295 296 296 297 298 299 300 300 301
312 312 313 313 312 312 311 310 310 310 308 307 306 304 303 302 301 299 297 296 294 292 292 291 291 290 291 291 291 291 292 292 292 292 292 292 292 292 293 293 294 294 294 294 295 295 295 295 295 295 294 294 294 294 294 295 295 296 297 298 299 301 301
310 310 311 311 311 311 311 310 310 309 308 306 305 304 303 301 300 298 296 295 293 292 292 292 290 290 290 291 291 291 291 291 292 292 291 291 291 292 292 293 293 293 294 294 294 294 294 294 294 294 294 294 294 294 294 294 294 295 295 296 297 298 299
310 309 310 311 311 311 310 309 309 308 307 305 304 303 302 301 299 298 296 294 293 292 292 291 290 290 290 290 291 291 291 291 291 291 291 291 291 291 291 292 292 293 293 293 294 294 294 294 294 294 294 294 294 294 294 294 294 294 295 295 296 297 297
311 310 310 311 310 309 309 308 308 307 306 305 303 302 302 300 299 297 295 294 293 292 292 291 290 290 290 290 290 291 291 291 291 291 291 291 291 291 291 291 291 292 292 293 293 293 294 294 293 293 293 293 293 293 293 293 293 293 294 295 296 296 297
311 310 310 308 305 306 308 308 307 306 305 304 303 302 301 300 298 297 295 294 293 293 292 291 291 290 290 290 290 290 291 291 291 291 290 290 290 290 290 290 290 291 291 291 292 292 292 292 292 292 293 293 293 293 293 293 293 293 294 294 295 296 297
310 309 308 306 304 306 307 307 306 305 304 303 303 301 300 299 298 296 295 294 294 293 292 291 291 291 290 290 290 290 290 291 291 290 290 290 290 290 290 289 289 290 290 290 290 291 291 291 291 291 292 292 292 293 293 293 293 293 294 294 294 296 297
310 308 307 306 306 307 307 306 305 303 303 302 301 300 299 299 298 297 296 296 295 294 293 291 291 291 291 290 290 290 290 290 290 290 290 290 290 290 290 289 289 289 289 289 290 290 290 290 290 291 291 291 291 292 292 292 292 293 293 294 294 295 295
308 307 306 307 306 306 305 303 301 300 300 300 300 300 299 298 298 298 297 297 296 295 294 292 291 291 291 290 289 289 290 290 290 290 290 290 290 289 289 289 289 289 289 289 289 289 290 290 290 290 290 290 291 291 291 291 292 292 293 293 294 295 295
306 306 306 307 305 303 301 300 299 299 300 300 300 300 299 299 298 298 297 297 296 295 294 293 291 291 291 291 290 289 290 290 290 290 290 290 289 289 289 289 289 289 289 289 289 289 289 289 289 289 289 290 290 290 290 291 291 291 292 293 293 294 295
305 306 306 305 302 300 299 299 299 300 300 300 300 300 299 299 298 297 297 296 295 294 294 293 292 292 292 291 290 289 290 290 290 290 290 289 289 289 289 289 288 288 288 288 288 288 289 289 289 289 289 289 289 290 290 290 291 291 291 292 293 294 294
Wind_Speed
15 12 9 8 6 5 5 4 4 4 4 5 5 3 2 2 2 1 1 2 2 2 2 3 4 5 5 5 5 6 6 7 7 6 6 7 7 7 9 8 7 10 9 8 7 5 2 3 6 10 12 13 14 17 20 24 27 29 30 29 29 30 30
15 13 11 10 8 7 6 5 5 5 5 5 4 3 2 1 1 1 2 3 3 4 4 4 5 4 4 5 5 5 6 6 7 6 6 7 6 7 8 8 8 9 9 9 10 9 6 5 4 5 9 11 11 13 14 16 20 24 27 28 29 29 30
17 15 14 13 11 10 8 7 6 6 5 5 4 2 1 0 2 4 5 6 6 6 6 6 6 6 6 6 6 6 6 6 6 6 6 6 7 7 7 7 8 9 8 6 6 8 7 7 5 5 9 10 10 15 19 17 15 17 19 22 25 27 29
19 18 17 16 15 13 11 9 7 6 6 5 4 3 2 0 3 4 6 7 7 8 8 8 8 8 8 7 7 7 7 7 7 6 6 6 6 6 7 8 8 8 8 6 7 10 8 6 6 5 8 12 12 17 24 24 22 20 18 19 21 23 25
21 21 20 19 17 16 13 11 9 8 7 6 5 5 3 2 2 2 4 5 7 9 10 10 9 8 8 8 9 9 8 8 8 8 7 7 7 8 7 8 8 8 9 10 11 12 11 11 11 7 8 13 11 15 24 25 25 26 24 23 23 23 22
22 22 22 21 18 16 15 12 11 10 9 8 7 6 4 3 2 1 4 5 7 9 11 11 10 9 10 10 11 11 11 11 10 10 9 8 8 9 8 8 8 8 9 11 11 12 12 14 14 9 10 12 10 14 21 21 22 24 26 26 25 25 25
24 24 23 22 20 18 16 14 12 11 10 9 8 6 4 3 2 3 4 6 7 8 10 11 10 10 11 12 12 13 13 13 13 12 11 10 9 9 9 9 9 9 10 10 11 11 11 13 14 11 10 10 10 13 16 17 19 19 21 26 25 23 25
25 25 25 24 22 20 18 16 14 12 11 9 8 7 6 5 5 5 5 6 7 8 10 10 10 10 11 12 12 12 13 13 13 13 13 12 12 11 11 10 10 10 10 10 11 11 11 11 13 15 13 9 8 8 9 12 15 16 21 26 25 24 25
27 26 26 26 24 22 19 17 15 13 11 10 9 9 8 7 7 7 6 7 7 8 10 10 10 11 11 12 14 14 13 13 13 14 14 14 13 13 13 12 12 12 12 12 12 12 12 12 13 15 15 11 9 7 5 6 8 11 18 20 20 23 25
29 28 28 27 25 23 21 19 17 15 13 11 11 10 10 9 8 8 7 7 7 8 9 10 11 11 12 14 15 15 14 14 14 14 14 14 14 15 15 15 15 15 15 14 15 14 14 15 14 14 15 15 13 9 4 5 6 8 14 16 16 20 23
30 29 28 27 26 25 23 21 19 16 14 13 13 11 10 10 9 8 7 7 7 8 9 10 11 11 12 14 15 14 14 14 15 14 14 15 15 16 17 17 17 17 16 16 16 16 16 16 17 17 16 16 16 12 8 7 7 10 17 19 18 20 21
31 30 29 27 27 26 25 23 21 19 16 16 15 13 11 10 10 9 8 8 9 9 10 11 11 12 13 14 15 15 14 14 15 16 16 16 17 18 18 19 19 18 17 17 16 16 16 17 17 18 18 18 17 16 15 11 8 11 18 20 22 24 23
33 32 30 29 28 27 26 24 23 21 19 18 17 15 13 12 11 10 9 8 9 10 11 11 12 12 13 14 15 15 15 15 16 16 17 18 18 19 19 20 20 19 18 19 18 17 17 17 17 17 18 19 18 16 17 15 10 13 21 23 24 27 27
33 32 31 29 28 27 26 25 24 23 21 20 19 17 15 13 12 10 8 8 8 9 10 12 12 12 13 14 14 14 15 15 16 17 18 19 19 20 21 21 21 20 19 20 19 19 18 18 18 19 18 18 19 17 16 16 12 13 21 24 22 24 26
34 32 31 29 28 27 26 25 25 24 23 21 20 18 16 14 12 9 7 7 7 9 10 12 12 12 12 12 13 13 14 15 16 17 18 18 19 19 20 21 21 20 20 20 21 20 20 19 18 19 20 18 19 18 15 15 15 13 18 24 22 22 23
34 32 31 29 27 26 25 24 24 24 23 21 19 17 15 13 10 7 6 6 7 9 11 11 10 10 10 11 13 14 14 15 15 16 17 18 18 18 19 20 21 20 20 21 22 21 20 20 19 19 20 19 19 21 18 15 16 15 17 23 23 21 21
33 32 31 28 26 25 23 23 23 23 22 20 18 16 14 11 8 6 6 7 8 10 10 9 8 9 10 11 13 14 15 16 16 16 16 17 17 17 17 18 19 19 19 20 21 21 20 20 20 19 20 20 20 22 21 17 16 16 17 21 23 20 19
29 31 30 27 25 23 22 22 22 21 19 17 16 15 13 10 8 7 7 7 8 8 7 7 7 9 11 13 14 16 17 18 18 17 17 16 16 16 17 18 18 18 18 19 20 21 20 20 21 21 21 22 21 21 22 19 17 17 17 19 22 22 19
26 28 28 26 24 22 21 21 21 19 16 15 14 13 11 9 8 7 7 7 6 5 5 7 8 10 12 15 17 19 19 19 19 19 18 17 16 17 17 17 18 17 17 18 20 21 21 21 21 22 22 22 22 21 21 21 19 18 19 19 21 23 21
29 29 28 26 24 22 21 21 19 17 15 14 13 11 10 9 8 7 7 6 4 5 6 7 9 11 14 17 18 19 20 20 21 20 20 19 18 18 18 18 18 18 18 18 20 20 21 21 21 21 21 21 22 21 21 22 21 20 19 19 20 23 22
34 33 31 28 25 23 22 21 19 17 15 14 12 11 10 9 9 7 5 4 4 5 6 7 9 12 15 16 18 19 20 21 22 22 22 21 20 19 19 19 20 20 21 21 21 21 22 22 23 23 23 22 23 23 23 23 22 21 19 19 20 21 23
35 35 33 30 27 25 23 21 19 17 15 13 12 11 10 10 8 6 3 2 3 3 4 6 9 12 14 16 17 19 21 22 23 24 24 24 23 22 21 21 22 22 22 22 23 24 25 25 26 27 27 26 25 25 25 24 23 22 20 19 19 21 21
36 36 34 32 30 27 25 22 20 17 15 14 13 12 11 10 7 4 2 2 1 1 4 7 10 12 13 15 17 19 21 22 23 24 25 26 25 25 24 24 24 24 24 24 24 25 25 26 27 27 28 28 27 26 26 25 23 22 21 19 20 20 19
36 35 34 33 31 29 27 25 21 18 16 15 14 13 12 10 7 4 4 3 1 3 6 9 12 14 15 16 18 20 21 23 23 24 25 27 27 27 27 27 26 26 26 26 26 26 26 27 28 28 29 30 30 29 28 27 25 23 22 20 21 20 18
31 34 35 35 33 31 29 27 22 20 18 17 16 15 13 10 7 5 4 2 2 5 9 12 13 15 17 18 19 20 22 23 24 25 26 27 28 28 29 29 28 28 27 27 27 27 27 28 28 28 29 30 31 31 31 31 30 28 25 23 23 23 22
30 33 35 34 33 32 31 27 23 21 20 18 17 16 13 10 8 6 4 1 3 6 9 12 15 17 18 19 18 19 21 23 25 26 27 27 28 28 29 29 29 29 28 28 28 28 28 28 28 28 29 29 30 31 31 32 33 32 31 29 27 27 27
35 36 36 34 33 33 30 25 22 20 20 19 18 16 13 10 8 5 3 1 4 6 8 12 17 19 20 21 19 19 21 23 25 27 28 28 29 29 29 29 30 30 29 29 28 28 28 28 27 27 28 29 30 30 30 30 31 31 32 33 32 33 33
28 31 34 33 33 32 27 23 21 21 20 19 17 15 12 9 7 5 2 2 4 6 9 14 17 19 21 22 21 21 22 24 26 27 28 28 29 29 29 29 30 31 31 30 29 28 27 26 27 28 30 30 31 31 31 31 30 30 31 32 32 33 34
20 23 30 31 30 28 24 21 21 21 20 18 16 13 11 9 6 4 3 4 6 8 10 14 16 19 22 23 22 22 23 25 27 28 28 29 29 29 28 28 29 30 31 31 29 28 27 27 29 30 31 32 32 33 34 33 31 32 33 35 36 35 34
22 24 29 30 28 25 21 19 20 21 20 18 15 13 10 8 7 5 5 6 7 9 10 13 16 19 22 23 23 23 24 26 27 28 30 29 29 28 27 27 28 29 30 30 29 29 28 28 29 31 31 32 32 33 34 33 31 32 33 35 37 38 38
29 30 29 27 23 20 17 17 19 20 19 16 13 11 10 8 8 7 7 8 9 9 11 13 16 19 22 24 24 24 25 27 28 30 31 30 29 29 28 27 26 27 30 30 29 29 28 28 30 31 31 32 33 33 33 32 32 33 32 33 35 36 37
34 35 31 23 18 16 16 18 18 17 15 12 11 10 10 9 9 9 9 10 11 11 12 14 16 19 22 24 25 25 26 27 29 31 31 31 30 29 29 29 28 28 30 31 31 32 32 32 33 33 31 31 32 32 30 30 31 33 32 32 33 33 35
33 32 27 19 17 19 20 19 17 15 13 11 10 10 11 11 11 10 10 11 13 13 14 16 17 20 22 24 26 27 27 27 30 31 31 30 30 30 31 31 30 29 30 31 32 33 34 34 35 36 34 33 32 31 30 30 31 32 32 33 33 33 33
33 31 27 24 23 22 19 16 13 12 11 11 11 11 11 12 12 12 12 13 15 16 17 18 19 21 24 25 27 27 27 28 30 31 31 30 30 32 33 32 31 30 30 31 32 33 34 34 35 37 37 37 36 36 35 35 35 34 35 35 35 35 35
32 30 28 26 24 20 15 13 11 11 10 11 11 12 13 13 13 13 14 15 17 19 20 21 22 23 25 27 29 29 29 30 30 31 32 32 31 33 34 34 34 33 32 33 33 33 34 35 36 38 40 40 41 40 39 38 38 36 35 35 33 33 34
31 29 27 24 21 18 15 14 13 12 11 12 13 13 13 13 13 14 15 16 19 22 23 24 24 25 27 29 31 32 31 31 30 30 31 33 34 35 36 36 35 35 34 34 35 35 36 37 38 41 42 42 42 42 41 40 38 36 35 34 33 33 32
29 28 25 21 19 19 18 16 15 13 13 13 13 12 12 12 13 14 16 19 21 23 25 26 26 27 29 31 32 33 32 31 30 30 31 34 35 36 36 36 37 37 38 39 40 41 42 42 42 44 44 43 42 41 40 38 37 35 34 33 33 32 32
Wind_Direction
192 183 178 181 186 202 212 196 172 159 136 134 148 153 142 141 146 134 129 133 122 101 86 75 70 66 62 57 50 47 46 41 34 30 25 19 14 2 357 348 306 285 282 286 282 277 289 304 300 289 280 273 266 262 260 260 259 259 261 263 264 264 265
195 186 182 186 190 197 202 189 175 171 166 157 156 164 167 149 111 103 114 123 112 91 80 75 67 56 45 38 32 29 27 33 35 32 28 22 16 6 2 360 347 332 320 306 291 272 252 257 281 288 292 296 288 277 270 265 263 261 262 265 267 267 266
193 189 189 192 196 196 193 187 179 172 173 176 175 177 196 95 76 87 90 91 86 74 66 58 49 39 31 25 19 15 11 13 17 22 26 20 14 16 13 8 356 344 338 329 310 293 268 254 259 267 283 293 292 285 282 278 273 267 263 265 268 269 266
195 194 194 195 198 197 192 187 183 179 178 186 195 201 224 105 91 84 74 67 57 46 39 31 23 18 15 10 4 360 359 2 2 3 8 8 5 5 10 13 7 356 343 328 318 314 298 273 275 274 273 278 279 281 284 284 280 275 269 268 272 272 269
200 201 200 200 201 199 194 188 186 186 186 188 198 208 212 184 143 85 48 35 26 22 17 14 15 16 12 5 359 354 352 353 356 356 359 1 2 360 1 1 356 355 349 340 333 322 312 301 296 291 282 284 281 279 284 286 283 279 275 274 276 276 275
203 206 207 208 207 204 198 195 194 193 193 194 196 204 213 201 191 356 5 3 4 4 3 6 11 15 12 7 4 360 356 353 351 352 353 356 359 358 355 349 343 347 347 346 344 333 323 312 300 289 287 288 281 279 284 285 283 282 280 277 277 277 278
205 209 212 215 214 210 207 207 209 207 204 205 200 202 219 228 248 298 326 338 345 347 350 358 5 8 6 4 3 359 355 352 348 346 344 342 343 343 343 339 336 339 341 344 346 342 337 321 303 296 296 292 283 279 281 280 279 279 278 278 278 278 278
207 210 214 219 220 215 213 213 216 216 216 216 211 212 225 233 246 268 292 312 321 327 338 349 355 358 359 358 357 354 349 345 343 343 342 340 336 333 334 334 332 331 333 336 339 341 342 335 321 311 300 290 283 279 278 280 276 272 273 277 280 280 280
208 210 213 218 221 219 217 218 219 220 222 222 218 223 232 235 240 253 271 291 302 313 329 339 344 347 351 352 351 349 348 345 342 340 339 338 336 332 329 326 325 325 325 325 325 327 329 331 333 326 314 304 295 283 281 287 279 274 278 279 282 286 286
208 210 212 215 219 219 219 221 222 220 221 222 222 227 234 236 239 248 263 279 292 309 326 333 335 338 342 344 345 347 349 347 346 344 341 339 337 334 329 325 322 320 318 316 313 314 317 317 321 326 325 319 309 294 279 285 277 277 284 280 277 285 289
211 212 213 215 218 219 218 218 218 218 219 222 224 226 229 233 240 250 261 277 294 310 323 328 329 333 335 337 341 346 347 346 344 344 343 341 338 335 332 329 326 323 320 317 312 310 310 310 311 313 316 319 316 307 296 288 274 272 279 278 274 278 283
214 214 214 215 217 219 218 217 215 216 218 220 222 225 227 230 238 248 259 277 295 309 318 322 325 328 329 332 336 339 341 339 336 336 336 334 332 331 330 329 328 328 326 323 319 316 312 309 309 308 307 310 313 310 306 302 291 282 282 282 281 279 278
215 215 215 216 218 218 218 217 215 214 215 218 219 222 226 231 238 246 258 275 292 306 313 316 318 319 321 326 330 331 333 332 329 328 329 328 327 326 324 325 325 326 327 325 322 322 320 316 314 310 306 306 305 306 308 305 298 293 291 290 289 286 283
215 215 217 218 218 217 216 215 214 212 212 214 215 216 222 228 235 243 256 276 290 300 306 306 306 308 315 323 326 328 330 329 327 326 326 324 324 324 322 321 321 322 324 323 321 321 320 319 319 315 311 309 304 302 305 305 301 297 295 296 298 298 294
213 213 215 217 216 214 213 213 211 210 209 209 210 213 217 220 225 236 252 272 285 291 295 295 296 304 315 322 326 330 331 329 327 327 326 325 324 324 322 319 319 321 321 320 318 317 317 317 318 316 313 313 308 303 303 302 300 300 299 300 303 306 305
210 209 211 213 213 212 212 210 209 208 206 204 205 208 211 212 214 227 247 263 275 282 284 285 292 306 317 324 328 331 330 328 326 324 323 322 322 322 320 317 315 318 319 318 315 315 315 314 314 313 311 311 309 306 304 301 298 298 299 300 302 303 306
207 206 208 210 211 210 209 207 206 204 202 200 200 201 202 204 209 223 240 254 264 269 271 278 293 308 316 324 328 327 326 323 321 319 318 318 317 314 313 310 310 312 314 313 311 312 312 312 311 310 307 307 307 306 306 304 297 295 296 298 301 303 305
206 204 205 207 208 208 207 204 202 200 199 199 198 199 200 204 213 226 238 248 253 256 265 282 299 310 318 325 325 323 323 320 316 313 311 312 313 309 305 303 302 304 305 304 304 305 306 306 306 305 303 303 303 303 304 304 299 296 296 297 299 302 305
209 205 204 204 204 204 203 201 198 197 198 199 199 202 206 210 219 230 236 238 242 254 276 293 302 311 318 321 320 318 317 316 314 310 307 306 307 305 302 301 299 299 298 297 297 298 300 300 300 299 299 299 299 300 300 301 301 298 296 294 293 296 299
205 206 205 202 199 197 197 196 195 194 197 199 201 206 211 218 224 225 223 226 246 276 292 299 306 312 315 315 315 315 315 314 312 310 308 305 303 301 299 298 297 295 294 292 293 294 296 296 296 294 294 295 297 297 295 296 298 297 295 292 290 290 293
201 202 203 199 193 190 189 190 191 192 194 197 202 210 216 219 215 209 215 245 281 294 300 307 311 313 315 316 316 315 315 314 312 310 308 306 304 302 300 299 297 294 291 288 287 287 289 291 293 292 291 292 292 292 291 291 292 291 291 290 287 288 289
200 196 194 191 186 184 184 185 187 189 192 196 203 208 211 209 204 202 224 274 289 294 305 312 315 318 319 321 320 317 314 312 310 309 306 305 303 301 299 298 297 295 293 289 286 284 283 283 286 287 288 289 290 288 286 285 284 284 284 283 283 284 284
196 189 187 185 182 180 181 183 185 187 192 197 200 201 201 198 197 199 197 182 195 290 317 321 323 323 323 322 318 315 313 312 310 308 305 303 301 299 298 297 296 295 292 290 287 285 283 281 280 280 282 283 286 288 287 283 280 277 276 275 274 276 277
189 186 184 181 180 179 179 181 183 187 191 194 196 197 197 195 193 190 182 179 222 316 330 330 327 323 318 316 313 311 311 310 309 308 305 302 299 298 297 295 294 293 290 288 286 284 283 282 280 279 278 278 279 281 283 283 280 276 273 271 270 268 267
186 187 186 181 180 180 179 178 180 185 190 193 195 194 193 193 191 188 190 203 311 336 338 336 334 330 323 317 312 310 309 308 307 306 305 302 299 297 295 293 291 289 286 285 285 284 282 280 279 279 279 278 277 275 275 275 276 276 272 269 269 267 264
189 190 187 182 180 178 176 175 177 185 191 193 194 191 188 188 185 185 195 232 340 343 347 348 349 348 340 330 320 314 311 309 306 304 303 301 298 295 293 291 289 286 284 283 283 282 280 279 278 278 278 279 279 276 273 271 271 274 273 269 266 265 264
196 192 186 182 180 176 173 172 177 186 191 191 190 186 181 182 181 185 204 311 339 335 346 354 355 353 348 340 330 319 313 309 306 304 301 299 296 293 291 290 287 285 284 283 281 280 278 276 276 277 278 278 278 277 276 273 271 271 272 270 266 264 264
201 191 181 178 177 173 169 171 178 187 192 191 189 184 181 184 186 190 222 302 311 309 327 345 353 354 350 345 336 324 315 310 306 304 301 298 295 292 290 289 287 286 285 283 281 278 275 273 274 275 276 276 275 275 274 273 271 270 269 269 267 266 266
202 187 173 169 169 168 168 173 181 187 188 185 184 183 185 192 199 205 235 277 282 287 311 335 349 354 352 348 338 326 317 310 305 302 299 297 294 292 290 289 287 286 284 282 280 277 274 274 274 273 273 273 273 273 272 273 273 272 268 267 267 267 268
184 174 165 163 165 166 170 177 183 186 183 179 181 189 195 202 210 224 239 252 264 280 307 331 344 349 351 348 340 329 319 310 305 301 297 296 294 292 290 288 286 285 283 281 279 278 276 275 273 271 271 272 273 272 272 274 275 274 272 269 268 268 268
171 163 158 157 157 160 173 185 187 186 183 183 189 199 206 213 220 224 232 244 258 281 308 326 336 341 345 346 341 332 322 312 305 301 298 296 294 292 290 287 284 282 281 280 279 277 276 275 274 273 272 273 273 271 271 275 277 277 276 274 272 270 268
165 156 151 148 149 165 187 191 186 185 189 194 204 209 215 225 225 218 225 246 263 284 306 319 327 334 340 343 340 334 325 314 305 302 300 298 296 294 292 289 286 283 281 279 278 276 275 274 274 274 273 273 271 270 272 275 276 276 277 275 273 270 267
154 147 147 153 164 178 186 182 179 186 196 206 216 221 226 232 227 221 233 254 270 286 300 312 320 328 335 339 338 334 325 313 304 301 300 299 297 295 294 292 289 286 284 281 279 277 275 273 272 272 271 269 267 269 274 276 274 274 274 272 270 270 268
152 151 160 171 172 171 171 171 181 197 206 216 223 227 233 234 230 232 247 263 277 288 297 306 314 323 331 336 336 332 323 312 305 301 299 297 295 293 293 292 290 288 287 284 282 279 276 273 271 270 268 266 266 269 272 272 271 271 270 269 268 267 265
153 154 162 165 161 159 164 176 191 201 209 220 227 230 235 237 237 244 256 270 283 290 296 302 308 318 327 332 333 330 322 314 308 301 296 294 293 291 291 291 290 290 288 285 282 280 277 274 272 269 268 266 266 267 267 267 267 266 266 266 266 263 260
151 154 157 159 158 161 172 184 194 203 213 222 228 233 239 241 243 253 266 281 292 297 299 300 304 313 323 328 329 327 322 315 309 300 292 290 290 291 291 291 291 291 290 288 284 281 278 275 273 270 269 267 266 265 264 263 263 262 262 262 262 260 257
150 153 155 160 165 171 179 188 196 208 218 224 229 237 245 247 251 264 279 290 299 304 304 300 302 310 320 325 325 323 318 313 308 300 293 289 290 290 291 292 292 293 292 289 287 284 280 277 274 271 269 268 266 264 262 260 258 257 256 255 255 255 254